[[{"header":{"parameterUnit":"m.s-1","parameterCategory":2,"la1":30.2991,"la2":30.254,"lo1":-89.0895,"lo2":-89.0444,"dy":0.0017,"dx":0.0017,"nx":28,"ny":28,"refTime":"2025-06-07T09:00:00:Z","depth":"0","parameterNumber":2,"parameterNumberName":"U-component_of_CURRENTS"},"data":[0,0,0,0,0,0,0,0,0,0,0,0,0,0,0,0,0,0,0,0,0,0,0,0,0,0,0,0,0,0,0,0,0,0,0,0,0,0,0,0,0,0,0,0,0,0,0,0,0,0,0,0,0,0,0,0,0,0,0.2246,0.2247,0,0.2356,0.2357,0.2359,0.2432,0.2432,0.2432,0.2433,0.251,0.2512,0.2514,0,0,0,0,0,0,0,0,0,0,0,0,0,0.2188,0.2189,0.2246,0.2247,0.2248,0.2356,0.2357,0.2359,0.2432,0.2432,0.2432,0.2433,0.251,0.2512,0.2514,0,0,0,0,0,0,0,0,0,0,0,0,0,0.225,0.2189,0.2246,0.2295,0.2301,0.2355,0.2357,0.236,0.2432,0.2432,0.2433,0.2433,0.2509,0.2512,0.2515,0.2525,0,0,0.2523,0.2524,0,0,0,0,0,0,0,0,0.2246,0.2252,0.2287,0.2292,0.2298,0.2378,0.2366,0.2412,0.2432,0.2385,0.2433,0.2433,0.2461,0.2468,0.2492,0.2529,0.2532,0.2523,0.2525,0.2526,0.2527,0,0,0,0,0,0,0,0.2242,0.2248,0.2293,0.2288,0.2295,0.2342,0.2351,0.2376,0.2422,0.2389,0.2394,0.2401,0.2464,0.249,0.2495,0.2533,0.2523,0.2526,0.2528,0.2529,0.2623,0.2624,0,0,0,0,0,0,0.2217,0.2244,0.2289,0.2296,0.2269,0.2342,0.2352,0.2354,0.2422,0.2432,0.2401,0.2404,0.2485,0.2491,0.2498,0.255,0.2526,0.2529,0.2531,0.2622,0.2623,0.2624,0,0,0,0,0,0,0.2215,0.222,0.2285,0.227,0.2281,0.2342,0.2345,0.2356,0.2384,0.2431,0.2441,0.2416,0.2485,0.2494,0.2524,0.2552,0.253,0.2533,0.2621,0.2622,0.2624,0.2632,0,0,0,0,0,0,0.2213,0.2218,0.2214,0.2268,0.2281,0.2317,0.2344,0.2358,0.2387,0.2392,0.2447,0.2455,0.2486,0.2519,0.2527,0.2555,0.2535,0.262,0.2622,0.2623,0.263,0.2633,0.2635,0,0,0,0,0,0.221,0.2202,0.2213,0.2219,0.2272,0.2317,0.2329,0.2376,0.2387,0.2401,0.2437,0.2454,0.2535,0.2522,0.253,0.2561,0.2619,0.2621,0.2623,0.2629,0.2633,0.2635,0,0,0,0,0,0,0.2172,0.221,0.2223,0.2226,0.2267,0.2328,0.2343,0.2371,0.2413,0.2415,0.2457,0.2468,0.2507,0.2526,0.2511,0.2592,0.2583,0.2586,0.2585,0.2588,0.259,0.2598,0.2537,0,0,0,0,0,0.2159,0.2165,0.2211,0.2213,0.2231,0.2285,0.2308,0.2339,0.238,0.24,0.2439,0.248,0.2522,0.2546,0.2579,0.2617,0.2615,0.2644,0.2647,0.2649,0.266,0.2671,0.2675,0.263,0.263,0.263,0,0,0.2146,0.2165,0.217,0.2206,0.2241,0.2272,0.2301,0.2333,0.2362,0.2399,0.2446,0.2483,0.2531,0.2581,0.2601,0.2601,0.2656,0.2651,0.2652,0.2663,0.2674,0.2678,0.2682,0.2631,0.2631,0.2631,0,0,0.2123,0.2138,0.214,0.2176,0.2219,0.2257,0.2262,0.2323,0.2354,0.2395,0.2437,0.2499,0.2543,0.2609,0.2641,0.2676,0.2662,0.2674,0.2703,0.2713,0.2717,0.272,0.2699,0.2701,0.2683,0.2683,0.2683,0,0.2103,0.2115,0.2148,0.2168,0.2197,0.2246,0.2268,0.2308,0.2372,0.2403,0.2405,0.2523,0.2569,0.2657,0.2679,0.2687,0.2662,0.2687,0.2715,0.2719,0.2722,0.27,0.2702,0.2684,0.2684,0.2684,0.2684,0,0.2095,0.2109,0.2115,0.2156,0.2191,0.2218,0.2276,0.2309,0.2344,0.2398,0.2477,0.2549,0.2623,0.2655,0.2681,0.2744,0.2706,0.2708,0.2704,0.2727,0.2702,0.2704,0.2685,0.2684,0.2684,0.2684,0,0,0.2049,0.2097,0.2103,0.2123,0.2191,0.2218,0.2262,0.2329,0.2362,0.2437,0.2493,0.2607,0.265,0.269,0.2741,0.2776,0.2786,0.2749,0.2749,0.2722,0.2765,0.2599,0.2584,0.277,0.2771,0.2772,0.273,0,0.2038,0.2057,0.2093,0.213,0.2155,0.2215,0.2259,0.2326,0.2377,0.244,0.2542,0.2611,0.2659,0.2695,0.2741,0.2769,0.2792,0.2795,0.2753,0.2752,0.2598,0.2583,0.2522,0.2466,0.2731,0.2731,0.2731,0,0.2032,0.2047,0.2071,0.2127,0.2144,0.2173,0.2248,0.2296,0.2396,0.2435,0.2526,0.2586,0.2685,0.2702,0.2769,0.2752,0.2762,0.2784,0.2782,0.2629,0.259,0.2493,0.2459,0.2418,0.2733,0.2733,0.2733,0,0.2003,0.2039,0.2052,0.2076,0.2145,0.2165,0.2208,0.23,0.2347,0.2433,0.2465,0.2572,0.2615,0.2661,0.2699,0.2723,0.2725,0.2765,0.2634,0.2621,0.2566,0.2545,0.2486,0.2805,0.2805,0.2805,0.2805,0,0.1995,0.2013,0.2034,0.2052,0.2083,0.214,0.2185,0.2242,0.2322,0.2379,0.2463,0.2501,0.2599,0.2615,0.2663,0.2613,0.2687,0.2626,0.2598,0.2561,0.2542,0.2499,0.2448,0.2803,0.2804,0.2804,0.2804,0,0.199,0.1999,0.2034,0.2074,0.2075,0.2116,0.2172,0.2207,0.2272,0.2336,0.2362,0.2437,0.242,0.2475,0.252,0.2531,0.244,0.25,0.2422,0.2384,0.2207,0.2156,0.1941,0.1911,0.2356,0.2351,0.2348,0,0.1996,0.1999,0.204,0.2063,0.2083,0.2117,0.2135,0.2189,0.2213,0.2293,0.2311,0.231,0.2288,0.2246,0.2251,0.2235,0.2238,0.2176,0.2233,0.2162,0.2089,0.2019,0.2009,0.2173,0.2168,0.2165,0.2161,0,0.2006,0.202,0.2043,0.2077,0.2093,0.2102,0.2116,0.2112,0.2169,0.2181,0.2165,0.2147,0.2095,0.202,0.1969,0.1982,0.2039,0.2088,0.2069,0.1961,0.1831,0.18,0.222,0.2126,0.213,0.2132,0.2134,0.2136,0.2013,0.2032,0.2044,0.2076,0.2097,0.2062,0.2016,0.201,0.1983,0.1962,0.1998,0.1926,0.1925,0.1819,0.1774,0.1699,0.1725,0.1735,0.1688,0.1631,0.1559,0.1849,0.1678,0.1679,0.168,0.168,0.1681,0,0.199,0.1988,0.203,0.2031,0.2029,0.2043,0.1975,0.1894,0.1787,0.1811,0.1754,0.1709,0.1605,0.1586,0.1517,0.1406,0.1401,0.1344,0.132,0.1346,0.1675,0.163,0.1371,0.1371,0.1372,0.1372,0.1372,0.1372,0.1974,0.1963,0.1966,0.1929,0.1934,0.1826,0.1755,0.1646,0.1603,0.1512,0.148,0.1478,0.1483,0.1346,0.1202,0.1164,0.1109,0.0949,0.0977,0.1302,0.1341,0.1377,0.1329,0.1011,0.1011,0.0699,0.0696,0.0693]},{"header":{"parameterUnit":"m.s-1","parameterCategory":2,"la1":30.2991,"la2":30.254,"lo1":-89.0895,"lo2":-89.0444,"dy":0.0017,"dx":0.0017,"nx":28,"ny":28,"refTime":"2025-06-07T09:00:00:Z","depth":"0","parameterNumber":3,"parameterNumberName":"V-component_of_CURRENTS"},"data":[0,0,0,0,0,0,0,0,0,0,0,0,0,0,0,0,0,0,0,0,0,0,0,0,0,0,0,0,0,0,0,0,0,0,0,0,0,0,0,0,0,0,0,0,0,0,0,0,0,0,0,0,0,0,0,0,0,0,0.0599,0.0599,0,0.0655,0.0656,0.0657,0.0696,0.0696,0.0695,0.0695,0.0758,0.076,0.0762,0,0,0,0,0,0,0,0,0,0,0,0,0,0.0556,0.0557,0.0599,0.0599,0.0599,0.0655,0.0656,0.0657,0.0696,0.0696,0.0695,0.0695,0.0758,0.076,0.0762,0,0,0,0,0,0,0,0,0,0,0,0,0,0.0595,0.0557,0.0599,0.0621,0.0623,0.0654,0.0656,0.0657,0.0696,0.0696,0.0695,0.0695,0.0757,0.076,0.0763,0.0786,0,0,0.0771,0.0772,0,0,0,0,0,0,0,0,0.0592,0.0597,0.0618,0.062,0.0622,0.0663,0.0664,0.0699,0.0696,0.0674,0.0695,0.0695,0.0724,0.0729,0.0748,0.0789,0.0792,0.0771,0.0773,0.0774,0.0775,0,0,0,0,0,0,0,0.059,0.0595,0.0627,0.0618,0.062,0.0638,0.0644,0.0671,0.0704,0.0676,0.0678,0.0675,0.0726,0.0746,0.075,0.0793,0.0771,0.0774,0.0776,0.0777,0.0896,0.0898,0,0,0,0,0,0,0.0571,0.0592,0.0625,0.0628,0.06,0.0639,0.0645,0.0655,0.0704,0.071,0.0675,0.0677,0.0741,0.0747,0.0752,0.0815,0.0774,0.0777,0.0779,0.0895,0.0897,0.0898,0,0,0,0,0,0,0.057,0.0574,0.0622,0.0606,0.0613,0.0639,0.065,0.0656,0.0674,0.0702,0.0709,0.0686,0.0741,0.0748,0.0795,0.0817,0.0778,0.0781,0.0893,0.0895,0.0897,0.092,0,0,0,0,0,0,0.0569,0.0573,0.058,0.0605,0.0613,0.0645,0.065,0.0657,0.067,0.0673,0.0714,0.072,0.0741,0.079,0.0797,0.082,0.0783,0.0891,0.0894,0.0897,0.0918,0.0923,0.0928,0,0,0,0,0,0.0567,0.0585,0.058,0.0584,0.062,0.0645,0.0652,0.0672,0.0671,0.0687,0.0722,0.0718,0.0813,0.0794,0.0802,0.0826,0.089,0.0893,0.0896,0.0916,0.0922,0.0928,0,0,0,0,0,0,0.0576,0.059,0.0586,0.0608,0.0621,0.0649,0.0667,0.067,0.0711,0.0713,0.074,0.0749,0.0796,0.081,0.0789,0.087,0.085,0.0855,0.0862,0.0868,0.0873,0.0905,0.0785,0,0,0,0,0,0.0575,0.0591,0.0601,0.0618,0.0624,0.0641,0.0654,0.0662,0.0693,0.071,0.074,0.0776,0.0817,0.084,0.0874,0.0919,0.0909,0.094,0.0945,0.0949,0.0981,0.0969,0.0975,0.0909,0.0909,0.0909,0,0,0.0582,0.0591,0.0599,0.0619,0.0634,0.0662,0.0651,0.0669,0.0703,0.071,0.0774,0.0791,0.0832,0.0888,0.091,0.0902,0.0959,0.0953,0.0956,0.0987,0.0973,0.0979,0.0985,0.0911,0.0911,0.0911,0,0,0.0606,0.061,0.0631,0.0647,0.0658,0.0673,0.0674,0.07,0.0724,0.0772,0.0792,0.0839,0.0886,0.094,0.0967,0.1023,0.0981,0.101,0.1068,0.1054,0.1059,0.1064,0.1036,0.1038,0.1017,0.1017,0.1017,0,0.061,0.0642,0.0642,0.0669,0.0691,0.0679,0.0714,0.0739,0.0779,0.0822,0.0796,0.0905,0.0927,0.1023,0.1041,0.1038,0.1002,0.1036,0.1059,0.1063,0.1067,0.1038,0.104,0.1018,0.1018,0.1018,0.1018,0,0.0655,0.068,0.0696,0.073,0.0754,0.0778,0.0803,0.0835,0.0848,0.0884,0.0963,0.0993,0.1068,0.1066,0.1072,0.1126,0.1079,0.1056,0.1037,0.1075,0.1042,0.1043,0.102,0.102,0.1019,0.1019,0,0,0.0665,0.0717,0.0723,0.0753,0.0788,0.0814,0.0875,0.0942,0.1003,0.1026,0.1112,0.1173,0.1181,0.1214,0.1214,0.1205,0.119,0.1138,0.1137,0.1102,0.1129,0.1123,0.1123,0.1139,0.1141,0.1141,0.1084,0,0.0699,0.0761,0.0785,0.0853,0.0887,0.0915,0.0984,0.1043,0.1087,0.1165,0.1199,0.1269,0.1237,0.126,0.1254,0.121,0.1198,0.1207,0.1109,0.1107,0.1089,0.1127,0.1139,0.1092,0.1085,0.1086,0.1086,0,0.0739,0.0776,0.0844,0.0928,0.0949,0.0991,0.1101,0.1161,0.1265,0.1302,0.1371,0.1383,0.1425,0.136,0.132,0.1309,0.1237,0.1183,0.1178,0.1177,0.1106,0.1061,0.1094,0.1148,0.1088,0.1087,0.1087,0,0.0752,0.0824,0.0881,0.0906,0.0994,0.1045,0.1101,0.1209,0.129,0.1385,0.1435,0.148,0.1483,0.1421,0.133,0.1306,0.1242,0.1199,0.1135,0.1131,0.1135,0.1131,0.1212,0.117,0.117,0.117,0.117,0,0.0786,0.0831,0.0888,0.0922,0.1005,0.1066,0.1179,0.1247,0.1369,0.1472,0.1501,0.1555,0.1484,0.1446,0.1357,0.1259,0.1267,0.1169,0.1131,0.1141,0.1139,0.118,0.118,0.1168,0.1169,0.1169,0.1169,0,0.0796,0.083,0.0906,0.0993,0.101,0.108,0.1207,0.1305,0.1398,0.1521,0.155,0.1596,0.1524,0.1453,0.1337,0.1287,0.1217,0.1158,0.1173,0.114,0.1142,0.1141,0.1133,0.1201,0.109,0.109,0.109,0,0.0808,0.0842,0.0937,0.0979,0.1015,0.1107,0.1181,0.1303,0.1403,0.1543,0.1598,0.158,0.1572,0.1427,0.1306,0.1173,0.1185,0.1131,0.1122,0.1177,0.1147,0.1122,0.1181,0.1115,0.1115,0.1115,0.1115,0,0.0828,0.0864,0.0922,0.1008,0.1078,0.1174,0.1276,0.1354,0.1503,0.1588,0.167,0.1673,0.1537,0.1428,0.1271,0.1177,0.1192,0.1128,0.1186,0.1197,0.1175,0.121,0.1105,0.1115,0.1115,0.1115,0.1115,0.1115,0.0832,0.0877,0.0952,0.1032,0.1132,0.124,0.1319,0.1423,0.1553,0.1694,0.1692,0.1725,0.1623,0.1394,0.1276,0.1172,0.1148,0.1168,0.1163,0.1135,0.122,0.1122,0.1092,0.1092,0.1092,0.1091,0.1091,0,0.0818,0.0869,0.0963,0.108,0.1206,0.1249,0.1388,0.1466,0.158,0.1715,0.177,0.1823,0.1642,0.1503,0.1322,0.126,0.1239,0.1245,0.124,0.1304,0.1218,0.1245,0.1248,0.1248,0.1248,0.1247,0.1247,0.1247,0.0805,0.0868,0.0921,0.1098,0.1203,0.1359,0.1436,0.1522,0.1638,0.1828,0.1953,0.2031,0.2027,0.1554,0.1376,0.1342,0.1407,0.131,0.1387,0.1348,0.1341,0.1336,0.1367,0.1394,0.1394,0.1503,0.1504,0.1504]}],[{"header":{"parameterUnit":"m.s-1","parameterCategory":2,"la1":30.2991,"la2":30.254,"lo1":-89.0895,"lo2":-89.0444,"dy":0.0017,"dx":0.0017,"nx":28,"ny":28,"refTime":"2025-06-07T09:00:00:Z","depth":"2","parameterNumber":2,"parameterNumberName":"U-component_of_CURRENTS"},"data":[0,0,0,0,0,0,0,0,0,0,0,0,0,0,0,0,0,0,0,0,0,0,0,0,0,0,0,0,0,0,0,0,0,0,0,0,0,0,0,0,0,0,0,0,0,0,0,0,0,0,0,0,0,0,0,0,0,0,0.2173,0.2174,0,0.2253,0.2254,0.2254,0.2298,0.2298,0.2298,0.2299,0.2388,0.2391,0.2393,0,0,0,0,0,0,0,0,0,0,0,0,0,0.2108,0.2108,0.2173,0.2174,0.2175,0.2253,0.2254,0.2255,0.2298,0.2298,0.2298,0.2299,0.2388,0.239,0.2393,0,0,0,0,0,0,0,0,0,0,0,0,0,0.2155,0.2108,0.2173,0.2207,0.2211,0.2252,0.2254,0.2255,0.2298,0.2298,0.2299,0.2299,0.2387,0.239,0.2393,0.2408,0,0,0.2403,0.2405,0,0,0,0,0,0,0,0,0.2152,0.2158,0.2201,0.2205,0.2209,0.2267,0.2264,0.2307,0.2298,0.2264,0.2299,0.2299,0.2349,0.2356,0.2368,0.2412,0.2416,0.2404,0.2406,0.2407,0.2408,0,0,0,0,0,0,0,0.2149,0.2155,0.2204,0.2202,0.2207,0.2235,0.2242,0.2272,0.2303,0.2267,0.227,0.2281,0.2351,0.2365,0.2371,0.2417,0.2404,0.2407,0.2409,0.241,0.2522,0.2523,0,0,0,0,0,0,0.2138,0.2151,0.2201,0.2206,0.2182,0.2236,0.2243,0.2247,0.2303,0.2312,0.228,0.2283,0.2359,0.2367,0.2374,0.2436,0.2407,0.241,0.2412,0.2521,0.2523,0.2524,0,0,0,0,0,0,0.2137,0.2142,0.2198,0.2182,0.2191,0.2236,0.2241,0.2248,0.2275,0.2313,0.2322,0.23,0.236,0.2369,0.2385,0.2438,0.2412,0.2415,0.252,0.2522,0.2523,0.2533,0,0,0,0,0,0,0.2134,0.214,0.214,0.2181,0.2191,0.2225,0.2241,0.225,0.228,0.2284,0.2333,0.2341,0.2361,0.238,0.2389,0.2442,0.2417,0.2519,0.2521,0.2523,0.2531,0.2535,0.2537,0,0,0,0,0,0.2131,0.2127,0.2139,0.2145,0.2189,0.2225,0.2233,0.2266,0.2281,0.2291,0.2306,0.234,0.24,0.2382,0.2392,0.2448,0.2518,0.252,0.2523,0.253,0.2534,0.2537,0,0,0,0,0,0,0.2092,0.2133,0.2146,0.2153,0.2188,0.2233,0.2244,0.2271,0.2294,0.2295,0.2331,0.2339,0.238,0.2403,0.2382,0.2486,0.2475,0.2479,0.2477,0.2481,0.2484,0.2499,0.242,0,0,0,0,0,0.2084,0.2095,0.2138,0.2143,0.216,0.2205,0.2224,0.2248,0.2275,0.2287,0.2322,0.236,0.2397,0.2425,0.2452,0.2499,0.2492,0.2548,0.2551,0.2554,0.2573,0.2575,0.2579,0.2531,0.2531,0.2531,0,0,0.2073,0.2093,0.2102,0.2137,0.2165,0.2191,0.2217,0.2246,0.2273,0.2292,0.2332,0.2363,0.2406,0.2454,0.248,0.2482,0.2559,0.2557,0.2558,0.2576,0.2578,0.2582,0.2586,0.2533,0.2533,0.2532,0,0,0.2053,0.2072,0.2078,0.2109,0.215,0.2179,0.219,0.2241,0.2269,0.2302,0.2331,0.2391,0.2435,0.2497,0.2528,0.2568,0.2563,0.2581,0.2625,0.2626,0.263,0.2633,0.2602,0.2603,0.2596,0.2596,0.2596,0,0.2038,0.205,0.2085,0.2102,0.2129,0.2175,0.2195,0.223,0.228,0.2315,0.2312,0.2423,0.2469,0.2557,0.2578,0.2583,0.2551,0.2605,0.2628,0.2632,0.2635,0.2603,0.2604,0.2597,0.2597,0.2596,0.2596,0,0.2029,0.2044,0.2051,0.2089,0.2121,0.2144,0.22,0.2231,0.227,0.2324,0.2406,0.2462,0.2534,0.2575,0.2592,0.2665,0.262,0.2617,0.2615,0.264,0.2605,0.2605,0.2598,0.2597,0.2597,0.2597,0,0,0.1993,0.2035,0.2041,0.2059,0.2119,0.2144,0.2187,0.2254,0.2292,0.2366,0.2429,0.2541,0.2586,0.2626,0.2672,0.2708,0.271,0.2674,0.2674,0.2636,0.2667,0.2468,0.2449,0.2686,0.2687,0.2687,0.2621,0,0.1979,0.1996,0.2029,0.2062,0.2083,0.2139,0.2183,0.2253,0.2306,0.2372,0.2481,0.2551,0.2599,0.2634,0.268,0.2694,0.2715,0.2727,0.2656,0.2654,0.2468,0.2445,0.2312,0.2226,0.2621,0.2621,0.2621,0,0.1972,0.1985,0.2005,0.2059,0.2076,0.2102,0.2177,0.2226,0.2333,0.2375,0.2471,0.2532,0.2633,0.2648,0.2699,0.2685,0.2685,0.2698,0.2694,0.2512,0.2456,0.2272,0.2212,0.2622,0.2622,0.2622,0.2622,0,0.1945,0.1976,0.1988,0.2008,0.2073,0.2095,0.2139,0.2235,0.2289,0.238,0.2412,0.2521,0.2561,0.2595,0.2625,0.2646,0.2634,0.2662,0.2491,0.2476,0.2355,0.2325,0.2692,0.2692,0.2693,0.2693,0.2693,0,0.1934,0.1951,0.1971,0.1986,0.2018,0.2076,0.2126,0.2182,0.2269,0.2333,0.2417,0.2453,0.2543,0.2553,0.2588,0.2502,0.2592,0.2485,0.2443,0.2347,0.232,0.2671,0.267,0.269,0.2691,0.2691,0.2692,0,0.1931,0.1937,0.1974,0.2013,0.2011,0.2057,0.2117,0.2154,0.2223,0.2291,0.232,0.2392,0.2365,0.2414,0.244,0.2412,0.2388,0.2343,0.2199,0.214,0.2244,0.2245,0.2143,0.2136,0.2129,0.2124,0.2119,0,0.1938,0.1939,0.1984,0.2007,0.2026,0.2063,0.208,0.2138,0.2164,0.2248,0.2267,0.2265,0.2234,0.2151,0.2117,0.2065,0.2198,0.1879,0.1915,0.2216,0.2188,0.2198,0.2207,0.1766,0.1759,0.1753,0.1749,0,0.1948,0.1966,0.199,0.2027,0.2043,0.2049,0.2063,0.2059,0.2121,0.2131,0.2117,0.2095,0.2012,0.1852,0.1745,0.1726,0.1869,0.1751,0.2113,0.1898,0.1847,0.1823,0.1848,0.1697,0.1702,0.1706,0.1709,0.1711,0.1957,0.198,0.1996,0.2027,0.205,0.201,0.1962,0.1942,0.1913,0.1861,0.1919,0.1794,0.1755,0.149,0.1413,0.1355,0.1507,0.1458,0.1483,0.1513,0.1453,0.139,0.1143,0.1145,0.1147,0.1148,0.1149,0,0.1928,0.1932,0.1978,0.1982,0.198,0.1996,0.192,0.182,0.1691,0.1658,0.1579,0.1369,0.1211,0.1189,0.1033,0.0979,0.1067,0.092,0.106,0.1109,0.1153,0.1084,0.0672,0.067,0.0669,0.0668,0,0,0.1907,0.1898,0.1898,0.1864,0.1879,0.1761,0.1684,0.1539,0.145,0.1264,0.1159,0.1156,0.1165,0.0922,0.086,0.0748,0.094,0.071,0.1095,0.1313,0.1356,0.1455,0.1398,0,0,0,0,0]},{"header":{"parameterUnit":"m.s-1","parameterCategory":2,"la1":30.2991,"la2":30.254,"lo1":-89.0895,"lo2":-89.0444,"dy":0.0017,"dx":0.0017,"nx":28,"ny":28,"refTime":"2025-06-07T09:00:00:Z","depth":"2","parameterNumber":3,"parameterNumberName":"V-component_of_CURRENTS"},"data":[0,0,0,0,0,0,0,0,0,0,0,0,0,0,0,0,0,0,0,0,0,0,0,0,0,0,0,0,0,0,0,0,0,0,0,0,0,0,0,0,0,0,0,0,0,0,0,0,0,0,0,0,0,0,0,0,0,0,0.0518,0.0518,0,0.0549,0.0549,0.055,0.0568,0.0568,0.0568,0.0568,0.0638,0.0639,0.0641,0,0,0,0,0,0,0,0,0,0,0,0,0,0.0472,0.0473,0.0518,0.0518,0.0519,0.0549,0.0549,0.055,0.0568,0.0568,0.0568,0.0568,0.0637,0.0639,0.0642,0,0,0,0,0,0,0,0,0,0,0,0,0,0.0498,0.0474,0.0518,0.053,0.0531,0.0549,0.0549,0.055,0.0568,0.0568,0.0568,0.0568,0.0636,0.0639,0.0642,0.0662,0,0,0.0651,0.0652,0,0,0,0,0,0,0,0,0.0497,0.05,0.0528,0.0529,0.0531,0.0553,0.0559,0.0589,0.0568,0.0556,0.0568,0.0568,0.0612,0.0617,0.0625,0.0666,0.0669,0.0651,0.0653,0.0654,0.0655,0,0,0,0,0,0,0,0.0495,0.0499,0.0532,0.0528,0.053,0.0533,0.0536,0.0564,0.0586,0.0557,0.0558,0.0559,0.0613,0.0622,0.0627,0.067,0.0651,0.0654,0.0655,0.0656,0.0777,0.0779,0,0,0,0,0,0,0.0488,0.0497,0.0531,0.0533,0.0511,0.0533,0.0538,0.0547,0.0585,0.059,0.0559,0.0559,0.0617,0.0623,0.0629,0.0698,0.0654,0.0657,0.0658,0.0776,0.0778,0.0779,0,0,0,0,0,0,0.0487,0.0491,0.053,0.0514,0.0519,0.0534,0.0545,0.0548,0.0564,0.0586,0.0592,0.0572,0.0617,0.0625,0.0659,0.0699,0.0658,0.0661,0.0774,0.0776,0.0778,0.0809,0,0,0,0,0,0,0.0486,0.0491,0.05,0.0514,0.0519,0.0548,0.0545,0.0549,0.0563,0.0564,0.0599,0.0605,0.0618,0.0654,0.0662,0.0702,0.0663,0.0772,0.0775,0.0778,0.0806,0.0812,0.0817,0,0,0,0,0,0.0484,0.0504,0.05,0.0504,0.053,0.0548,0.0552,0.0563,0.0564,0.0576,0.0595,0.0604,0.0678,0.0657,0.0666,0.0708,0.0771,0.0774,0.0777,0.0803,0.0811,0.0817,0,0,0,0,0,0,0.0492,0.0507,0.0504,0.0527,0.0536,0.0551,0.0565,0.0568,0.0592,0.0593,0.0614,0.0622,0.0669,0.0682,0.0659,0.0752,0.073,0.0735,0.0747,0.0754,0.0759,0.0794,0.0665,0,0,0,0,0,0.0494,0.0512,0.052,0.0538,0.0544,0.0553,0.0563,0.0566,0.0585,0.0596,0.0622,0.0653,0.0689,0.0713,0.0741,0.0788,0.0774,0.0825,0.083,0.0834,0.0869,0.0851,0.0858,0.079,0.079,0.079,0,0,0.0502,0.0512,0.0522,0.054,0.0549,0.0573,0.056,0.0575,0.0606,0.06,0.0656,0.0669,0.0703,0.0755,0.0779,0.0773,0.0841,0.0839,0.0842,0.0875,0.0855,0.0862,0.0867,0.0792,0.0792,0.0792,0,0,0.0528,0.0534,0.0557,0.0568,0.0578,0.0586,0.0592,0.061,0.0631,0.067,0.068,0.0725,0.0769,0.0815,0.0841,0.0898,0.0863,0.0896,0.0962,0.0943,0.0948,0.0953,0.0915,0.0916,0.0906,0.0906,0.0907,0,0.0534,0.0565,0.0565,0.059,0.0609,0.0597,0.0629,0.0649,0.0679,0.0722,0.0694,0.0792,0.0813,0.0904,0.0921,0.0916,0.0875,0.093,0.0949,0.0953,0.0957,0.0917,0.0918,0.0908,0.0908,0.0908,0.0908,0,0.0576,0.0601,0.0617,0.0647,0.0668,0.0689,0.0711,0.0742,0.0758,0.0793,0.0872,0.0887,0.0958,0.0963,0.0961,0.102,0.0969,0.0945,0.0927,0.0965,0.0921,0.0921,0.0911,0.091,0.091,0.0909,0,0,0.0591,0.0638,0.0643,0.067,0.07,0.0723,0.0781,0.0848,0.0911,0.0933,0.1022,0.1077,0.1087,0.1118,0.1114,0.1105,0.1085,0.1037,0.1034,0.0991,0.1008,0.0952,0.0946,0.1034,0.1035,0.1036,0.0954,0,0.0623,0.068,0.0701,0.0763,0.0794,0.0818,0.0885,0.0946,0.0991,0.107,0.1107,0.1176,0.1144,0.1167,0.116,0.1106,0.109,0.1108,0.0987,0.0985,0.0923,0.0947,0.088,0.08,0.0953,0.0953,0.0953,0,0.0659,0.0693,0.0757,0.0835,0.0855,0.0895,0.1002,0.1061,0.1169,0.1208,0.1279,0.1293,0.1335,0.1269,0.1215,0.121,0.1129,0.1068,0.1062,0.1012,0.0931,0.0794,0.0794,0.0953,0.0953,0.0953,0.0953,0,0.0673,0.0738,0.0793,0.0814,0.0897,0.0947,0.1003,0.1113,0.1197,0.1295,0.1345,0.1389,0.1391,0.132,0.1221,0.1198,0.1119,0.107,0.0951,0.0944,0.0873,0.0859,0.103,0.1031,0.1031,0.1031,0.1031,0,0.0703,0.0746,0.08,0.0831,0.0912,0.0972,0.1086,0.1153,0.1279,0.1386,0.1414,0.1466,0.1391,0.1346,0.1247,0.1106,0.1139,0.098,0.0931,0.0879,0.0867,0.0999,0.0997,0.1028,0.1029,0.1029,0.103,0,0.0713,0.0745,0.082,0.0904,0.0919,0.0991,0.1119,0.1217,0.1311,0.1437,0.1469,0.151,0.1428,0.135,0.1219,0.1123,0.1008,0.0949,0.0888,0.0835,0.0832,0.0832,0.0798,0.0796,0.0794,0.0792,0.0791,0,0.0726,0.0759,0.0854,0.0897,0.0931,0.1024,0.1095,0.1219,0.1318,0.1459,0.1514,0.1492,0.147,0.1274,0.1111,0.0938,0.0952,0.075,0.0719,0.0859,0.0814,0.0817,0.082,0.0617,0.0614,0.0612,0.061,0,0.0746,0.0786,0.0844,0.0932,0.1,0.1093,0.1193,0.127,0.1421,0.1499,0.1579,0.1572,0.1396,0.1183,0.0953,0.0831,0.0777,0.0697,0.0863,0.0695,0.0683,0.0641,0.0651,0.0591,0.0593,0.0594,0.0595,0.0596,0.0754,0.0802,0.0881,0.0959,0.1059,0.1161,0.1237,0.1318,0.144,0.1517,0.1548,0.1479,0.1293,0.0936,0.0777,0.0612,0.0641,0.0528,0.0537,0.0548,0.055,0.0537,0.0415,0.0416,0.0417,0.0417,0.0418,0,0.0737,0.0793,0.0889,0.1007,0.1131,0.1176,0.1304,0.1353,0.1431,0.144,0.1447,0.1217,0.0992,0.0823,0.0553,0.0403,0.0411,0.0334,0.0366,0.0384,0.0401,0.0399,0.0222,0.0222,0.0222,0.0221,0,0,0.0723,0.0787,0.0837,0.1014,0.1125,0.1267,0.1337,0.136,0.1379,0.1311,0.1236,0.1149,0.0986,0.0732,0.0529,0.0385,0.0426,0.0346,0.0505,0.0581,0.0601,0.0497,0.0512,0,0,0,0,0]}],[{"header":{"parameterUnit":"m.s-1","parameterCategory":2,"la1":30.2991,"la2":30.254,"lo1":-89.0895,"lo2":-89.0444,"dy":0.0017,"dx":0.0017,"nx":28,"ny":28,"refTime":"2025-06-07T09:00:00:Z","depth":"4","parameterNumber":2,"parameterNumberName":"U-component_of_CURRENTS"},"data":[0,0,0,0,0,0,0,0,0,0,0,0,0,0,0,0,0,0,0,0,0,0,0,0,0,0,0,0,0,0,0,0,0,0,0,0,0,0,0,0,0,0,0,0,0,0,0,0,0,0,0,0,0,0,0,0,0,0,0.0882,0.0882,0,0.0793,0.0792,0.079,0.0808,0.081,0.0812,0.0814,0.081,0.0808,0.0806,0,0,0,0,0,0,0,0,0,0,0,0,0,0.0881,0.0882,0.0882,0.0882,0.0881,0.0793,0.0791,0.079,0.0807,0.081,0.0813,0.0816,0.0811,0.0809,0.0806,0,0,0,0,0,0,0,0,0,0,0,0,0,0.0839,0.0882,0.0882,0.0885,0.0885,0.0794,0.0791,0.0789,0.0807,0.081,0.0814,0.0817,0.0812,0.0809,0.0805,0.0715,0,0,0.0795,0.0794,0,0,0,0,0,0,0,0,0.0842,0.0838,0.0885,0.0885,0.0884,0.0822,0.079,0.0771,0.0806,0.0828,0.0815,0.0819,0.0824,0.082,0.0784,0.0715,0.0715,0.0795,0.0793,0.0791,0.079,0,0,0,0,0,0,0,0.0845,0.0841,0.0839,0.0884,0.0884,0.0827,0.0826,0.0785,0.0804,0.0827,0.083,0.083,0.0824,0.0787,0.0784,0.0715,0.0795,0.0792,0.079,0.0789,0.0886,0.089,0,0,0,0,0,0,0.0877,0.0845,0.0842,0.0837,0.088,0.0826,0.0824,0.0832,0.0803,0.0803,0.0828,0.0832,0.0791,0.0788,0.0785,0.0863,0.0791,0.0788,0.0786,0.0881,0.0887,0.0892,0,0,0,0,0,0,0.0877,0.0877,0.0846,0.0844,0.0838,0.0825,0.0832,0.0829,0.0839,0.0804,0.0805,0.0849,0.0794,0.0789,0.0858,0.0857,0.0787,0.0784,0.0876,0.0883,0.089,0.0901,0,0,0,0,0,0,0.0877,0.0878,0.0896,0.0847,0.0839,0.0836,0.0829,0.0825,0.0835,0.0841,0.0821,0.0821,0.0796,0.0864,0.0855,0.0851,0.0781,0.087,0.0879,0.0887,0.0895,0.0907,0.0918,0,0,0,0,0,0.0878,0.0884,0.0897,0.0897,0.0864,0.0838,0.0828,0.0823,0.0834,0.0843,0.0885,0.0824,0.0913,0.0865,0.0853,0.0847,0.0866,0.0877,0.0887,0.0889,0.0905,0.0918,0,0,0,0,0,0,0.0897,0.0885,0.0899,0.0906,0.0899,0.0845,0.084,0.0841,0.0865,0.0886,0.0867,0.0871,0.0924,0.0916,0.0864,0.092,0.0883,0.0892,0.089,0.0904,0.0915,0.0771,0.0778,0,0,0,0,0,0.0909,0.0909,0.0901,0.0907,0.0907,0.088,0.087,0.0872,0.0882,0.0894,0.09,0.0926,0.0941,0.0956,0.0962,0.0977,0.0947,0.0983,0.0995,0.1004,0.0892,0.1019,0.1029,0.0926,0.0926,0.0926,0,0,0.0909,0.0911,0.0907,0.0911,0.0894,0.0877,0.0882,0.0879,0.0872,0.0888,0.0913,0.0953,0.0962,0.0997,0.1018,0.0997,0.1015,0.1017,0.1023,0.0903,0.1031,0.1039,0.1047,0.0933,0.0932,0.0931,0,0,0.0896,0.0922,0.0912,0.0899,0.0901,0.0895,0.0911,0.09,0.0912,0.0948,0.0971,0.1021,0.105,0.1043,0.1044,0.1123,0.1074,0.1169,0.1089,0.122,0.1226,0.1231,0.116,0.1159,0.1175,0.1176,0.1176,0,0.0908,0.0895,0.0906,0.0885,0.0879,0.0911,0.0898,0.0891,0.0917,0.0934,0.0979,0.1013,0.1041,0.1024,0.1065,0.1126,0.1152,0.1022,0.1225,0.123,0.1235,0.1162,0.116,0.1177,0.1177,0.1177,0.1177,0,0.0866,0.0863,0.0854,0.0849,0.0849,0.0844,0.0852,0.0897,0.0944,0.0932,0.0963,0.0995,0.1033,0.1055,0.1065,0.1105,0.109,0.1224,0.1162,0.1244,0.1164,0.1161,0.118,0.1179,0.1179,0.1178,0,0,0.088,0.0838,0.084,0.083,0.0833,0.0832,0.0857,0.0879,0.0919,0.0916,0.0929,0.0925,0.0959,0.0959,0.0995,0.103,0.1093,0.1131,0.1137,0.0999,0.1258,0.114,0.1125,0.1321,0.1322,0.1323,0.1166,0,0.0858,0.0825,0.081,0.0789,0.0777,0.0814,0.0819,0.0844,0.0923,0.0961,0.0916,0.0945,0.0923,0.0977,0.1012,0.1119,0.1098,0.1111,0.1241,0.1237,0.1083,0.1125,0.1327,0.1164,0.1164,0.1163,0.1163,0,0.0824,0.0813,0.0793,0.0771,0.077,0.0779,0.0872,0.0866,0.091,0.0977,0.098,0.0983,0.0953,0.0994,0.1042,0.1085,0.1124,0.1141,0.1144,0.0997,0.1118,0.1086,0.1158,0.1159,0.1159,0.1159,0.116,0,0.0841,0.0801,0.0803,0.0785,0.077,0.0807,0.0821,0.0887,0.0907,0.0993,0.1055,0.103,0.1085,0.1106,0.1104,0.1157,0.113,0.1275,0.111,0.1097,0.1236,0.1233,0.1256,0.1256,0.1257,0.1257,0.1258,0,0.0815,0.0809,0.0821,0.0811,0.0819,0.0807,0.0852,0.0917,0.0972,0.0972,0.1049,0.1052,0.1155,0.1139,0.1106,0.1048,0.1171,0.1001,0.1066,0.1242,0.1242,0.1229,0.1228,0.1251,0.1253,0.1254,0.1255,0,0.0787,0.0808,0.0749,0.0761,0.0819,0.0782,0.0841,0.0861,0.0972,0.1003,0.1015,0.1136,0.1161,0.1107,0.1164,0.1095,0.1021,0.0953,0.0955,0.1039,0.0869,0.0872,0.0778,0.0773,0.0769,0.0765,0.0762,0,0.076,0.0756,0.0722,0.0658,0.0665,0.0682,0.0719,0.0861,0.0914,0.0995,0.1003,0.1056,0.1093,0.1004,0.102,0.0877,0.0871,0.0779,0.0912,0.0754,0.0828,0.0838,0.0846,0.0756,0.0754,0.0753,0.0752,0,0.0696,0.0674,0.0615,0.0495,0.0508,0.0534,0.063,0.0705,0.0831,0.0935,0.098,0.0933,0.0955,0.0958,0.0854,0.0751,0.0831,0.0735,0.0746,0.0871,0.0726,0.0806,0.0819,0.0737,0.0739,0.0741,0.0742,0,0.0625,0.0531,0.0443,0.0324,0.0293,0.0369,0.0453,0.0567,0.0689,0.0864,0.0851,0.0873,0.0965,0.0882,0.0751,0.0678,0.0697,0.066,0.0676,0.0692,0.0736,0.0544,0.0492,0,0,0,0,0,0.0571,0.0489,0.0299,0.0179,0.0092,0.0176,0.0375,0.0485,0.0718,0.0727,0.0807,0.0783,0.0704,0.0725,0.0632,0.0667,0.066,0.0546,0.0619,0.0655,0.0672,0.0732,0,0,0,0,0,0,0.054,0.0404,0.0291,0.0103,0.0006,0.006,0.0223,0.038,0.046,0.0621,0.0627,0.0671,0.065,0.0726,0.0591,0.0581,0.0593,0.0558,0.0554,0.0645,0.066,0.0674,0.0742,0,0,0,0,0]},{"header":{"parameterUnit":"m.s-1","parameterCategory":2,"la1":30.2991,"la2":30.254,"lo1":-89.0895,"lo2":-89.0444,"dy":0.0017,"dx":0.0017,"nx":28,"ny":28,"refTime":"2025-06-07T09:00:00:Z","depth":"4","parameterNumber":3,"parameterNumberName":"V-component_of_CURRENTS"},"data":[0,0,0,0,0,0,0,0,0,0,0,0,0,0,0,0,0,0,0,0,0,0,0,0,0,0,0,0,0,0,0,0,0,0,0,0,0,0,0,0,0,0,0,0,0,0,0,0,0,0,0,0,0,0,0,0,0,0,0.0098,0.0098,0,0.0079,0.0078,0.0078,0.008,0.008,0.008,0.008,0.0075,0.0074,0.0074,0,0,0,0,0,0,0,0,0,0,0,0,0,0.0088,0.0089,0.0098,0.0098,0.0097,0.0079,0.0078,0.0078,0.008,0.008,0.008,0.0081,0.0075,0.0074,0.0074,0,0,0,0,0,0,0,0,0,0,0,0,0,0.0084,0.0089,0.0098,0.0096,0.0095,0.0079,0.0078,0.0078,0.008,0.008,0.008,0.0081,0.0075,0.0074,0.0074,0.0062,0,0,0.0072,0.0071,0,0,0,0,0,0,0,0,0.0084,0.0084,0.0096,0.0096,0.0095,0.0082,0.0073,0.0073,0.008,0.0086,0.008,0.0081,0.0078,0.0077,0.0073,0.0062,0.0061,0.0072,0.0071,0.0071,0.0071,0,0,0,0,0,0,0,0.0084,0.0084,0.009,0.0096,0.0095,0.0079,0.0079,0.0073,0.008,0.0085,0.0085,0.0083,0.0078,0.0073,0.0072,0.0061,0.0072,0.0071,0.0071,0.0071,0.006,0.006,0,0,0,0,0,0,0.0088,0.0085,0.0091,0.009,0.009,0.0079,0.0079,0.0086,0.008,0.0079,0.0082,0.0083,0.0074,0.0073,0.0072,0.0092,0.0071,0.0071,0.007,0.0059,0.006,0.006,0,0,0,0,0,0,0.0088,0.0089,0.0092,0.0086,0.0085,0.0079,0.0086,0.0085,0.0089,0.0077,0.0077,0.0088,0.0074,0.0073,0.0085,0.0091,0.007,0.007,0.0059,0.0059,0.006,0.011,0,0,0,0,0,0,0.0088,0.009,0.0098,0.0087,0.0086,0.0092,0.0086,0.0085,0.0086,0.0087,0.0082,0.0082,0.0074,0.0086,0.0084,0.0089,0.0069,0.0059,0.0059,0.006,0.0108,0.0112,0.0115,0,0,0,0,0,0.0088,0.0097,0.0099,0.01,0.0097,0.0092,0.0091,0.0087,0.0086,0.0092,0.0095,0.0082,0.0085,0.0086,0.0084,0.0089,0.0059,0.0059,0.006,0.0107,0.0111,0.0115,0,0,0,0,0,0,0.0099,0.0098,0.01,0.0109,0.0106,0.0093,0.0095,0.0092,0.0097,0.0099,0.0092,0.0091,0.0102,0.0086,0.0088,0.0084,0.0066,0.0066,0.0102,0.0106,0.0109,0.0039,0.0069,0,0,0,0,0,0.0105,0.0112,0.0107,0.0115,0.0115,0.0106,0.0105,0.0102,0.0101,0.0104,0.0105,0.01,0.0097,0.0097,0.0093,0.0094,0.0072,0.0091,0.0095,0.0098,0.0038,0.0089,0.0092,0.006,0.006,0.006,0,0,0.0106,0.011,0.0111,0.0117,0.0114,0.0115,0.0107,0.0106,0.0109,0.0102,0.0115,0.0116,0.0101,0.0108,0.0109,0.0098,0.0091,0.0098,0.0101,0.0038,0.0089,0.0092,0.0095,0.006,0.006,0.006,0,0,0.0111,0.0121,0.0127,0.0127,0.0127,0.0124,0.0127,0.0124,0.0126,0.0137,0.0132,0.0126,0.0137,0.0116,0.0108,0.0119,0.0112,0.0135,0.0092,0.0145,0.0148,0.015,0.011,0.0108,0.0133,0.0133,0.0134,0,0.0113,0.0124,0.0126,0.0132,0.0131,0.0131,0.0132,0.0134,0.0138,0.013,0.0147,0.0109,0.0126,0.0083,0.0101,0.0123,0.0131,0.0088,0.0151,0.0153,0.0154,0.0112,0.011,0.0136,0.0136,0.0135,0.0135,0,0.012,0.013,0.0133,0.0143,0.0143,0.0145,0.0146,0.0163,0.017,0.0149,0.0117,0.0109,0.0081,0.0096,0.0108,0.0106,0.0099,0.0161,0.0145,0.0161,0.0115,0.0111,0.0139,0.0139,0.0138,0.0137,0,0,0.0117,0.0135,0.0136,0.0145,0.0149,0.0152,0.0167,0.0161,0.017,0.0132,0.01,0.0079,0.0047,0.003,0.0029,0.0049,0.0094,0.0113,0.0115,0.0073,0.0157,0.0133,0.0126,0.0207,0.0207,0.0207,0.0116,0,0.0121,0.0141,0.0143,0.0156,0.0164,0.0173,0.0174,0.0167,0.0184,0.0163,0.0077,0.0058,0.003,0.0036,0.0039,0.012,0.0089,0.0107,0.0141,0.0138,0.0121,0.0124,0.0208,0.0113,0.0112,0.0111,0.0111,0,0.0121,0.0139,0.0154,0.0165,0.0166,0.0175,0.0202,0.0198,0.0164,0.0178,0.0101,0.0054,0.0008,0.0019,0.003,0.0064,0.0077,0.0098,0.0099,0.004,0.0108,0.0096,0.0104,0.0105,0.0105,0.0106,0.0106,0,0.0123,0.0143,0.016,0.0165,0.0175,0.0193,0.0194,0.0195,0.0197,0.0182,0.0194,0.0094,0.0107,0.0081,0.009,0.0112,0.0102,0.0163,0.0081,0.0077,0.0104,0.0103,0.0112,0.0112,0.0112,0.0112,0.0113,0,0.0123,0.0135,0.0171,0.0184,0.0197,0.0191,0.0211,0.0234,0.022,0.0208,0.0179,0.0149,0.0155,0.0127,0.0087,0.0061,0.0105,0.0025,0.0059,0.0124,0.0126,0.01,0.01,0.0109,0.011,0.011,0.0111,0,0.0109,0.0133,0.0151,0.0183,0.0201,0.02,0.0227,0.0244,0.0265,0.0264,0.0253,0.0253,0.0252,0.0168,0.0175,0.0118,0.0063,0.0016,0.0006,0.0049,-0.0019,-0.0016,-0.0071,-0.0073,-0.0074,-0.0075,-0.0076,0,0.0102,0.0117,0.016,0.0178,0.0199,0.0219,0.0238,0.0263,0.0304,0.0301,0.03,0.0286,0.0261,0.0204,0.0149,0.0014,-0.0006,-0.005,-0.0009,-0.0074,-0.0035,-0.0029,-0.0024,-0.0078,-0.0078,-0.0078,-0.0079,0,0.0092,0.0108,0.0128,0.0167,0.0205,0.0243,0.0293,0.0319,0.0338,0.0357,0.0355,0.0274,0.0257,0.0198,0.0108,-0.0001,-0.0007,-0.0063,-0.0061,-0.0023,-0.0082,-0.0041,-0.0034,-0.0083,-0.0082,-0.0082,-0.0082,0,0.0084,0.0087,0.0123,0.0147,0.0198,0.0263,0.0283,0.0339,0.0358,0.038,0.0364,0.0296,0.0293,0.0183,0.0071,0.0,-0.0015,-0.0026,-0.0026,-0.0022,0.0029,-0.0037,-0.0026,0,0,0,0,0,0.0087,0.0095,0.0111,0.0143,0.0192,0.0238,0.0323,0.0348,0.038,0.0388,0.038,0.0326,0.0199,0.015,0.0075,0.0033,-0.0039,-0.006,-0.0054,-0.0107,-0.0102,-0.0051,0,0,0,0,0,0,0.0092,0.0108,0.0103,0.0145,0.0175,0.0243,0.0306,0.0329,0.0358,0.037,0.032,0.0291,0.0186,0.0234,0.0063,0.0039,0.0031,-0.0112,-0.0114,-0.011,-0.0105,-0.0101,-0.0047,0,0,0,0,0]}]]